Regional Weather Roundup
Issued by NWS

Home | Current Version | Previous Version | Text Only | Print | Product List | Glossary On
Versions: 1 2 3 4 5 6 7 8 9 10 11 12 13 14 15 16 17 18 19 20 21 22 23 24 25 26 27 28 29 30 31 32 33 34 35 36 37 38 39 40 41 42 43 44 45 46 47 48 49 50
000
ASUS43 KDTX 102301
RWRMI
MICHIGAN HOURLY REGIONAL WEATHER ROUNDUP
NATIONAL WEATHER SERVICE DETROIT/PONTIAC MI
600 PM EST SAT DEC 10 2016

NOTE: "FAIR" INDICATES FEW OR NO CLOUDS BELOW 12,000 FEET WITH NO
SIGNIFICANT WEATHER AND/OR OBSTRUCTION TO VISIBILITY.

MIZ047>049-052>055-059>063-066>070-074>076-081>083-110000-
SOUTHEAST LOWER MICHIGAN

CITY           SKY/WX    TMP DP  RH WIND       PRES   REMARKS
ADRIAN         PTCLDY    24  16  71 W5        30.43R WCI  18
ALMA           CLOUDY    22  12  65 NW7       30.38S WCI  14
ANN ARBOR      CLOUDY    24  17  74 SW9       30.41R WCI  14
BAD AXE        PTCLDY    20  12  69 W6        30.37R WCI  13
CARO           CLOUDY    22  16  77 CALM      30.37S
DETROIT CITY   CLOUDY    25  19  78 W6        30.42R WCI  18
DETROIT        CLOUDY    26  16  65 SW9       30.43S WCI  17
FLINT          CLEAR     21  15  78 SW6       30.39S WCI  13
GROSSE ILE     PTCLDY    26  17  66 W7        30.42S WCI  19
HILLSDALE      CLOUDY    23  14  68 SW3       30.38S
HOWELL         FLURRIES  23  21  93 CALM      30.38S

CITY           SKY/WX    TMP DP  RH WIND       PRES   REMARKS
JACKSON        PTCLDY    22  16  78 SW8       30.40R WCI  12
LAMBERTVILLE   MOCLDY    28  17  61 SW3       30.44R
LANSING        CLOUDY    23  16  74 W10       30.40R WCI  12
LAPEER         NOT AVBL
MASON          LGT SNOW  23  20  89 CALM      30.39R
MONROE         CLOUDY    27  18  69 W7        30.42S WCI  19
MT. CLEMENS    PTCLDY    24  19  81 W3        30.38R
PONTIAC        LGT SNOW  23  18  81 SW6       30.37S WCI  16
PORT HOPE        N/A     24  12  60 SW6       30.35R WCI  17
PORT HURON     MOCLDY    23  18  80 CALM      30.41R
TRI CITIES     MOCLDY    22  12  65 W9        30.39R WCI  12
MIDLAND        CLOUDY    23  11  60 W6        30.37S WCI  16
TROY           CLOUDY    26  15  63 SW6       30.42S WCI  20
SAGINAW HB     MOCLDY    27  10  50 W9        30.38S WCI  17
$$
MIZ043>046-050>051-056>058-064>065-071>073-077>080-110000-
SOUTHWEST LOWER MICHIGAN

CITY           SKY/WX    TMP DP  RH WIND       PRES   REMARKS
BATTLE CREEK   CLOUDY    19  17  92 SW7       30.39S WCI  10
BENTON HARBOR  LGT SNOW  24  17  74 S8        30.41S WCI  15
BIG RAPIDS     CLOUDY    18  12  76 CALM      30.35S
COLDWATER      CLOUDY    24  16  72 SW6       30.40S WCI  16
FREMONT        FAIR      17  11  80 CALM      30.37S
HOLLAND        CLOUDY    26  17  68 SW5       30.38F WCI  20
GRAND RAPIDS   LGT SNOW  22  18  85 SW3       30.38F FOG
IONIA          LGT SNOW  21  18  86 CALM      30.37F
KALAMAZOO      LGT SNOW  23  17  78 SW10      30.40S WCI  12
LUDINGTON      CLOUDY    22  13  69 CALM      30.36S
MARSHALL       MOCLDY    21  17  83 SW5       30.39S WCI  15
MOUNT PLEASANT MOCLDY    22  10  59 W7        30.37S WCI  14
MUSKEGON       CLOUDY    25  15  66 W5        30.38F WCI  19
SOUTH HAVEN    CLOUDY    27  17  66 S3        30.39S
$$
MIZ016>042-110000-
NORTHERN LOWER MICHIGAN

CITY           SKY/WX    TMP DP  RH WIND       PRES   REMARKS
ALPENA         PTCLDY    19   6  57 SW5       30.34R WCI  12
BELLAIRE       FLURRIES  20  14  76 SW5       30.36R WCI  14
CADILLAC       CLOUDY    17  12  80 W5        30.30S WCI  10
CHARLEVOIX     CLOUDY    22  15  73 SW9       30.34S WCI  12
FRANKFORT      FLURRIES  21  15  76 W3        30.36S
GAYLORD        CLEAR     14   7  73 SW13      30.28S WCI   0
GRAYLING       CLOUDY    17  12  80 CALM      30.33R
HARBOR SPRINGS LGT SNOW  21  20  93 SW13G21   30.30S VSB 1   WCI   9
HOUGHTON LAKE  CLOUDY    17  13  84 NW3       30.33S
MANISTEE       CLOUDY    21  12  68 SW5       30.36S WCI  15
OSCODA         MOCLDY    22  13  66 MISG      30.34S
PELLSTON       LGT SNOW  21  17  84 NW7       30.31R VSB 3/4 WCI  12
ROGERS CITY    CLEAR     19  11  70 SW7       30.32S WCI  10
TRAVERSE CITY  FLURRIES  20  12  71 W7        30.35S WCI  11
$$
MIZ007>008-015-110000-
EASTERN UPPER MICHIGAN

CITY           SKY/WX    TMP DP  RH WIND       PRES   REMARKS
KINROSS        FLURRIES  18  12  77 W6        30.28R WCI  10
MACKINAC ISLAN CLEAR     19  15  83 NW9       30.28S WCI   8
NEWBERRY       FLURRIES  16  15  97 SW6       30.28R WCI   7
S. S. MARIE    FLURRIES  19  13  77 SW7       30.28R WCI  10
MUNISING         N/A     18   6  59 W7        30.32R WCI   9
$$
MIZ004>006-011>014-085-110000-
CENTRAL UPPER MICHIGAN

CITY           SKY/WX    TMP DP  RH WIND       PRES   REMARKS
MANISTIQUE     PTCLDY    13   9  84 W3        30.32R
ESCANABA       CLEAR     14   5  67 SW5       30.35R WCI   6
MENOMINEE        N/A     16   3  56 CALM      30.36F
SAWYER-GWINN   CLEAR      9   3  78 W5        30.30R WCI   0
$$
MIZ001>003-009>011-084-110000-
WESTERN UPPER MICHIGAN

CITY           SKY/WX    TMP DP  RH WIND       PRES   REMARKS
IRON MOUNTAIN  CLEAR      9  -2  61 CALM      30.29F
HOUGHTON       LGT SNOW  13   8  81 SW6       30.28F VSB 3/4 WCI   4
COPPER HARBOR    N/A     15   9  76 W5        30.32S WCI   8
IRONWOOD       PTCLDY     0  -4  83 CALM      30.31F
$$

ABBREVIATIONS USED IN REMARKS
   TC - TEMPERATURE IN CELSIUS
  WCI - WIND CHILL INDEX
   HX - HEAT INDEX
  VSB - VISIBILITY





USA.gov is the U.S. government's official web portal to all federal, state and local government web resources and services.